Location: Karcze
(52.0945°N, 22.4786°E)
Time: 02:39:58
(UTC+00:00)

Transit 2A Rocket - Pass Details

Date: 01 August 2021
Orbit: 586 x 916 km, 66.7° (Epoch: 21 September)

Event Time Altitude Azimuth Distance (km) Brightness Sun altitude
Rises 13:52:09 0° 237° (WSW) 2,886 8.9 38.8°
Reaches altitude 10° 13:54:23 10° 243° (WSW) 2,019 8.5 38.5°
Maximum altitude 13:58:48 48° 318° (NW) 880 6.1 37.8°
Drops below altitude 10° 14:03:39 10° 33° (NNE) 2,214 7.1 37.1°
Sets 14:06:13 0° 39° (NE) 3,197 7.8 36.8°
